WZZ2036 LHBP-EPKK

Flight info

Callsign WZZ2036
Flight time 0h 38m
Altitude 24000
Route LITKU Y301 KALIF DCT MEBAN
Aircraft A20N/M-SDE2E3FGHIRWXY/LB1

Departure

Time 2026-05-04 20:22
Airport Budapest Liszt Ferenc International Airport (LHBP)

Arrival

Time 2026-05-04 21:00
Airport Kraków John Paul II International Airport (EPKK)
Time Latitude Longitude Altitude Speed Heading
2026-05-04 19:58 47.43356 19.25841 469 ft 0 kts 221°
2026-05-04 20:11 47.43365 19.25852 469 ft 2 kts 219°
2026-05-04 20:11 47.43376 19.25866 470 ft 2 kts 222°
2026-05-04 20:11 47.43388 19.25881 470 ft 2 kts 221°
2026-05-04 20:11 47.43399 19.25896 471 ft 2 kts 226°
2026-05-04 20:12 47.43408 19.25914 471 ft 2 kts 242°
2026-05-04 20:12 47.43413 19.25935 472 ft 2 kts 255°
2026-05-04 20:12 47.43415 19.25948 472 ft 0 kts 263°
2026-05-04 20:12 47.43416 19.25956 472 ft 0 kts 265°
2026-05-04 20:16 47.43418 19.25942 472 ft 2 kts 292°
2026-05-04 20:17 47.43447 19.25888 471 ft 3 kts 330°
2026-05-04 20:17 47.43475 19.25846 471 ft 6 kts 307°
2026-05-04 20:17 47.43498 19.25779 470 ft 7 kts 300°
2026-05-04 20:17 47.43520 19.25741 470 ft 0 kts 313°
2026-05-04 20:18 47.43523 19.25736 470 ft 5 kts 312°
2026-05-04 20:19 47.43574 19.25705 472 ft 8 kts 18°
2026-05-04 20:19 47.43624 19.25763 474 ft 11 kts 44°
2026-05-04 20:19 47.43690 19.25854 475 ft 14 kts 43°
2026-05-04 20:19 47.43774 19.25973 477 ft 17 kts 45°
2026-05-04 20:20 47.43864 19.26088 478 ft 16 kts 39°
2026-05-04 20:20 47.43947 19.26199 478 ft 13 kts 42°
2026-05-04 20:20 47.43997 19.26266 478 ft 6 kts 42°
2026-05-04 20:20 47.44034 19.26319 479 ft 10 kts 47°
2026-05-04 20:21 47.44051 19.26539 478 ft 24 kts 118°
2026-05-04 20:21 47.43929 19.26746 473 ft 40 kts 133°
2026-05-04 20:21 47.42749 19.28670 457 ft 195 kts 131°
2026-05-04 20:22 47.41817 19.30237 1044 ft 218 kts 128°
2026-05-04 20:22 47.40941 19.32278 1659 ft 254 kts 118°
2026-05-04 20:22 47.40208 19.34540 2489 ft 220 kts 120°
2026-05-04 20:22 47.39545 19.36405 3340 ft 210 kts 122°
2026-05-04 20:23 47.38850 19.38295 4211 ft 213 kts 120°
2026-05-04 20:23 47.38453 19.40395 5070 ft 222 kts 87°
2026-05-04 20:23 47.39009 19.42489 5936 ft 228 kts 51°
2026-05-04 20:23 47.40128 19.44169 6594 ft 241 kts 45°
2026-05-04 20:24 47.41410 19.45992 6950 ft 269 kts 45°
2026-05-04 20:24 47.42831 19.48044 6995 ft 300 kts 45°
2026-05-04 20:24 47.44332 19.50240 6997 ft 307 kts 45°
2026-05-04 20:24 47.45831 19.52453 6991 ft 308 kts 46°
2026-05-04 20:25 47.47351 19.54710 7049 ft 312 kts 46°
2026-05-04 20:25 47.48895 19.57013 7560 ft 322 kts 46°
2026-05-04 20:25 47.50487 19.59394 8174 ft 334 kts 46°
2026-05-04 20:25 47.52139 19.61868 8786 ft 346 kts 46°
2026-05-04 20:26 47.53854 19.64438 9409 ft 352 kts 45°
2026-05-04 20:26 47.55771 19.66679 10010 ft 357 kts 28°
2026-05-04 20:26 47.58136 19.67701 10628 ft 360 kts
2026-05-04 20:26 47.60621 19.67322 11257 ft 362 kts 342°
2026-05-04 20:27 47.62859 19.65554 11884 ft 363 kts 319°
2026-05-04 20:27 47.64609 19.62890 12501 ft 365 kts 311°
2026-05-04 20:27 47.66273 19.60105 13117 ft 368 kts 310°
2026-05-04 20:27 47.67965 19.57288 13756 ft 371 kts 311°
2026-05-04 20:28 47.69639 19.54535 14352 ft 374 kts 312°
2026-05-04 20:28 47.71374 19.51715 14978 ft 377 kts 312°
2026-05-04 20:28 47.73163 19.48822 15623 ft 380 kts 312°
2026-05-04 20:28 47.75058 19.46113 16242 ft 382 kts 325°
2026-05-04 20:29 47.77445 19.44460 16873 ft 384 kts 346°
2026-05-04 20:29 47.80117 19.44161 17505 ft 387 kts
2026-05-04 20:29 47.82706 19.45268 18140 ft 390 kts 26°
2026-05-04 20:29 47.84871 19.47578 18768 ft 392 kts 42°
2026-05-04 20:30 47.86859 19.50361 19407 ft 393 kts 43°
2026-05-04 20:30 47.88849 19.53175 20042 ft 393 kts 43°
2026-05-04 20:30 47.90837 19.55949 20672 ft 394 kts 42°
2026-05-04 20:30 47.92982 19.58379 21288 ft 392 kts 28°
2026-05-04 20:31 47.95515 19.59812 21933 ft 391 kts 12°
2026-05-04 20:31 47.98197 19.60176 22578 ft 389 kts
2026-05-04 20:31 48.00882 19.60150 23221 ft 388 kts 359°
2026-05-04 20:31 48.03593 19.60086 23799 ft 389 kts 359°
2026-05-04 20:32 48.06330 19.60030 24056 ft 399 kts 359°
2026-05-04 20:32 48.09137 19.59988 24060 ft 413 kts 359°
2026-05-04 20:32 48.11975 19.59957 24059 ft 417 kts 359°
2026-05-04 20:32 48.14864 19.59932 24060 ft 418 kts 359°
2026-05-04 20:33 48.17786 19.59911 24060 ft 418 kts 359°
2026-05-04 20:33 48.20663 19.59891 24059 ft 418 kts 359°
2026-05-04 20:33 48.23603 19.59810 24060 ft 418 kts 357°
2026-05-04 20:33 48.26463 19.59578 24062 ft 419 kts 356°
2026-05-04 20:34 48.29385 19.59296 24061 ft 419 kts 356°
2026-05-04 20:34 48.32251 19.59011 24060 ft 420 kts 356°
2026-05-04 20:34 48.35139 19.58724 24064 ft 420 kts 356°
2026-05-04 20:34 48.38020 19.58441 24066 ft 419 kts 356°
2026-05-04 20:35 48.40984 19.58150 24068 ft 420 kts 356°
2026-05-04 20:35 48.43848 19.57872 24069 ft 419 kts 356°
2026-05-04 20:35 48.46757 19.57590 24069 ft 419 kts 356°
2026-05-04 20:35 48.49679 19.57366 24074 ft 419 kts 358°
2026-05-04 20:36 48.52611 19.57384 24073 ft 419 kts
2026-05-04 20:36 48.55502 19.57573 24074 ft 419 kts
2026-05-04 20:36 48.58408 19.57802 24075 ft 420 kts
2026-05-04 20:36 48.61325 19.58039 24080 ft 420 kts
2026-05-04 20:37 48.64244 19.58273 24083 ft 420 kts
2026-05-04 20:37 48.67116 19.58502 24085 ft 421 kts
2026-05-04 20:37 48.70039 19.58732 24086 ft 421 kts
2026-05-04 20:37 48.72962 19.58961 24089 ft 421 kts
2026-05-04 20:38 48.75914 19.59192 24091 ft 421 kts
2026-05-04 20:38 48.78825 19.59420 24091 ft 420 kts
2026-05-04 20:38 48.81719 19.59647 24089 ft 420 kts
2026-05-04 20:38 48.84627 19.59874 24089 ft 420 kts
2026-05-04 20:39 48.87568 19.60104 24093 ft 420 kts
2026-05-04 20:39 48.90483 19.60333 24092 ft 420 kts
2026-05-04 20:39 48.93391 19.60560 24092 ft 420 kts
2026-05-04 20:39 48.96291 19.60788 24095 ft 421 kts
2026-05-04 20:40 48.99218 19.61018 24095 ft 421 kts
2026-05-04 20:40 49.02156 19.61250 24091 ft 422 kts
2026-05-04 20:40 49.05095 19.61482 24086 ft 422 kts
2026-05-04 20:40 49.07996 19.61712 24081 ft 421 kts
2026-05-04 20:41 49.10912 19.61942 24084 ft 421 kts
2026-05-04 20:41 49.13849 19.62174 24083 ft 421 kts
2026-05-04 20:41 49.16759 19.62404 24085 ft 421 kts
2026-05-04 20:41 49.19687 19.62636 24091 ft 421 kts
2026-05-04 20:42 49.22601 19.62868 24084 ft 421 kts
2026-05-04 20:42 49.25529 19.63100 24085 ft 421 kts
2026-05-04 20:42 49.28428 19.63327 24089 ft 421 kts
2026-05-04 20:42 49.31338 19.63558 24082 ft 420 kts
2026-05-04 20:43 49.34270 19.63792 23655 ft 420 kts
2026-05-04 20:43 49.37167 19.64022 22880 ft 420 kts
2026-05-04 20:43 49.40080 19.64255 22107 ft 419 kts
2026-05-04 20:43 49.42971 19.64663 21328 ft 420 kts 11°
2026-05-04 20:44 49.45715 19.66152 20559 ft 421 kts 27°
2026-05-04 20:44 49.48087 19.68735 19778 ft 421 kts 43°
2026-05-04 20:44 49.50111 19.71928 19036 ft 421 kts 46°
2026-05-04 20:44 49.52096 19.75228 18272 ft 421 kts 47°
2026-05-04 20:45 49.54064 19.78508 17505 ft 420 kts 47°
2026-05-04 20:45 49.56032 19.81769 16753 ft 420 kts 46°
2026-05-04 20:45 49.58039 19.85072 15977 ft 419 kts 46°
2026-05-04 20:45 49.60024 19.88329 15209 ft 419 kts 46°
2026-05-04 20:46 49.61993 19.91557 14473 ft 418 kts 46°
2026-05-04 20:46 49.63988 19.94828 13715 ft 417 kts 46°
2026-05-04 20:46 49.65955 19.98057 12971 ft 416 kts 46°
2026-05-04 20:46 49.67934 20.01313 12222 ft 413 kts 46°
2026-05-04 20:47 49.69879 20.04513 11541 ft 409 kts 46°
2026-05-04 20:47 49.71806 20.07687 11137 ft 397 kts 46°
2026-05-04 20:47 49.73641 20.10706 11033 ft 378 kts 45°
2026-05-04 20:47 49.75628 20.13126 11028 ft 356 kts 27°
2026-05-04 20:48 49.77882 20.14365 11031 ft 333 kts
2026-05-04 20:48 49.80126 20.14485 11029 ft 312 kts 350°
2026-05-04 20:48 49.82156 20.13690 10990 ft 300 kts 334°
2026-05-04 20:48 49.83975 20.12118 10365 ft 304 kts 321°
2026-05-04 20:49 49.85674 20.10081 9633 ft 313 kts 318°
2026-05-04 20:49 49.87390 20.07951 8894 ft 322 kts 319°
2026-05-04 20:49 49.89140 20.05816 8320 ft 323 kts 319°
2026-05-04 20:49 49.90900 20.03745 8031 ft 315 kts 323°
2026-05-04 20:50 49.92789 20.02190 8009 ft 301 kts 335°
2026-05-04 20:50 49.94750 20.01288 8009 ft 287 kts 345°
2026-05-04 20:50 49.96648 20.00717 8002 ft 272 kts 347°
2026-05-04 20:50 49.98462 20.00242 7986 ft 259 kts 351°
2026-05-04 20:51 50.00254 20.00567 7976 ft 262 kts 21°
2026-05-04 20:51 50.01720 20.02191 7993 ft 263 kts 51°
2026-05-04 20:51 50.02535 20.04730 7995 ft 262 kts 77°
2026-05-04 20:51 50.02889 20.07506 7985 ft 263 kts 81°
2026-05-04 20:52 50.03204 20.10278 7751 ft 262 kts 81°
2026-05-04 20:52 50.03533 20.13022 7515 ft 260 kts 80°
2026-05-04 20:52 50.03888 20.15796 7272 ft 259 kts 79°
2026-05-04 20:52 50.04245 20.18495 7027 ft 255 kts 79°
2026-05-04 20:53 50.04734 20.21111 6763 ft 252 kts 60°
2026-05-04 20:53 50.05922 20.23066 6500 ft 246 kts 27°
2026-05-04 20:53 50.07505 20.23840 6257 ft 237 kts 359°
2026-05-04 20:53 50.09099 20.23521 6108 ft 225 kts 344°
2026-05-04 20:54 50.10490 20.23005 5933 ft 225 kts 343°
2026-05-04 20:54 50.11979 20.22277 5667 ft 220 kts 328°
2026-05-04 20:54 50.13013 20.20609 5409 ft 213 kts 295°
2026-05-04 20:54 50.13309 20.18439 5160 ft 208 kts 265°
2026-05-04 20:55 50.13042 20.16228 4996 ft 206 kts 256°
2026-05-04 20:55 50.12718 20.14044 4981 ft 207 kts 256°
2026-05-04 20:55 50.12437 20.11904 4848 ft 208 kts 257°
2026-05-04 20:55 50.12164 20.09741 4569 ft 206 kts 257°
2026-05-04 20:56 50.11885 20.07639 4299 ft 206 kts 256°
2026-05-04 20:56 50.11599 20.05584 4038 ft 206 kts 256°
2026-05-04 20:56 50.11288 20.03400 3765 ft 206 kts 255°
2026-05-04 20:56 50.10983 20.01274 3496 ft 205 kts 255°
2026-05-04 20:57 50.10670 19.99086 3226 ft 205 kts 255°
2026-05-04 20:57 50.10363 19.96929 2959 ft 204 kts 256°
2026-05-04 20:57 50.10072 19.94880 2702 ft 199 kts 256°
2026-05-04 20:57 50.09785 19.92845 2467 ft 187 kts 256°
2026-05-04 20:58 50.09525 19.90998 2221 ft 176 kts 256°
2026-05-04 20:58 50.09269 19.89184 1992 ft 163 kts 256°
2026-05-04 20:58 50.09039 19.87541 1770 ft 149 kts 256°
2026-05-04 20:58 50.08828 19.86034 1567 ft 139 kts 256°
2026-05-04 20:59 50.08625 19.84580 1398 ft 136 kts 256°
2026-05-04 20:59 50.08422 19.83131 1225 ft 136 kts 256°
2026-05-04 20:59 50.08228 19.81737 1045 ft 132 kts 256°
2026-05-04 20:59 50.08031 19.80336 891 ft 132 kts 256°
2026-05-04 21:00 50.07842 19.78968 803 ft 126 kts 256°
2026-05-04 21:00 50.07689 19.77904 800 ft 62 kts 258°
2026-05-04 21:00 50.07612 19.77341 800 ft 46 kts 260°
2026-05-04 21:00 50.07563 19.76980 800 ft 31 kts 258°
2026-05-04 21:01 50.07429 19.76871 800 ft 24 kts 168°
2026-05-04 21:01 50.07310 19.76988 800 ft 21 kts 79°
2026-05-04 21:01 50.07343 19.77214 800 ft 21 kts 78°
2026-05-04 21:01 50.07373 19.77439 800 ft 21 kts 79°
2026-05-04 21:02 50.07404 19.77659 800 ft 20 kts 77°
2026-05-04 21:02 50.07436 19.77879 800 ft 20 kts 78°
2026-05-04 21:02 50.07466 19.78096 800 ft 20 kts 77°
2026-05-04 21:02 50.07496 19.78313 800 ft 20 kts 78°
2026-05-04 21:03 50.07526 19.78528 800 ft 20 kts 78°
2026-05-04 21:03 50.07555 19.78740 800 ft 20 kts 78°
2026-05-04 21:03 50.07584 19.78946 800 ft 20 kts 78°
2026-05-04 21:03 50.07613 19.79155 800 ft 20 kts 78°
2026-05-04 21:04 50.07640 19.79367 800 ft 19 kts 78°
2026-05-04 21:04 50.07668 19.79570 800 ft 19 kts 76°
2026-05-04 21:04 50.07647 19.79693 800 ft 9 kts 129°
2026-05-04 21:04 50.07587 19.79725 800 ft 10 kts 184°
2026-05-04 21:05 50.07561 19.79728 800 ft 0 kts 168°
2026-05-04 21:05 50.07536 19.79714 800 ft 0 kts 243°
2026-05-04 21:06 50.07535 19.79712 800 ft 0 kts 244°
2026-05-04 21:06 50.07526 19.79669 800 ft 0 kts 257°
2026-05-04 21:06 50.07526 19.79668 800 ft 0 kts 257°